الصفحة الرئيسية
METAR-TAF:

METAR-TAF

مطار :

Faith Municipal Airport

Faith, داكوتا الجنوبية, الولايات المتحدة

دائرة عرض: 45-01-55N, خط طول: 102-01-09W, ارتفاع: 787 متر

مراقبة الطقس الحالي

تاريخ ووقت الإصدار 23 دقيقة قبل الساعة 03:56UTC
ريح 3 عقدة من الشمال
درجة الحرارة -14°درجة مئوية
الرطوبة 85%
ضغط 1022 hPa

METAR: KD07 220356Z AUTO 35003KT M14/M16 A3019 RMK AO1 SLP293 T11391156

زمن: 21:19 (04:19 UTC)


TAF: مفقودة

أرصاد الطقس والتوقعات من أكثر من 4000 مطار (تقارير الطقس للمطار METAR والتنبؤ بالطقس بالمطارTAF).

المحطات المتاحة هي النقط الصفراء والحمراء على الخريطة.

حرك المؤشر فوق النقطة لمعرفة اسم المحطة.

ثم انقر لمعرفة أرصاد وتوقعات الطقس.

لتغيير الخارطة: اضغط على الأزرار الخضراء مع رمز الصليب الأسود للتكبير. على الزر الأخضر مع شرطة للتصغير، أو على الأسهم الخضراء للخرائط المجاورة.


METAR-TAF: